Hourly Data Report for October 06, 2013

All times are specified in Local Standard Time (LST). Add 1 hour to adjust for Daylight Saving Time where and when it is observed.

ARVIAT A
NUNAVUT

61°05'38.000" N
94°04'18.000" W
10.40 m
2300427
71174
YEK

Download Data

Hourly Data (October 2013)
Hourly Data Report for October 6, 2013
Temp Definition
°C
Dew Point Temp Definition
°C
Rel Hum Definition
%
Wind Dir Definition
10's deg

Wind Spd Definition
km/h
Visibility Definition
km
Stn Press Definition
kPa
Hmdx Definition


Wind Chill Definition


Weather Definition


TIME
00:00 Legend Double Dagger 2.5 0.1 84 16 35 16.1 101.01     LegendNANA
01:00 Legend Double Dagger 2.8 0.5 85 17 39 16.1 100.91     LegendNANA
02:00 Legend Double Dagger 2.7 0.8 87 17 39 16.1 100.82     LegendNANA
03:00 Legend Double Dagger 2.9 1.0 87 16 35 16.1 100.77     LegendNANA
04:00 Legend Double Dagger 2.8 1.3 90 17 35 16.1 100.70     LegendNANA
05:00 Legend Double Dagger 2.7 1.5 92 17 35 16.1 100.63     LegendNANA
06:00 Legend Double Dagger 2.6 1.7 94 17 32 16.1 100.59     LegendNANA
07:00 Legend Double Dagger 2.6 1.9 95 17 32 16.1 100.54     LegendNANA
08:00 Legend Double Dagger 2.7 1.8 94 16 30 16.1 100.49     LegendNANA
09:00 Legend Double Dagger 2.7 1.8 94 16 33 16.1 100.45     LegendNANA
10:00 Legend Double Dagger 2.9 2.0 94 16 28 16.1 100.42     LegendNANA
11:00 Legend Double Dagger 3.0 2.1 94 16 26 16.1 100.40     LegendNANA
12:00 Legend Double Dagger 3.0 2.3 95 16 26 16.1 100.39     LegendNANA
13:00 Legend Double Dagger 3.2 2.8 97 16 22 16.1 100.37     LegendNANA
14:00 Legend Double Dagger 3.2 2.8 97 16 21 16.1 100.36     LegendNANA
15:00 Legend Double Dagger 3.3 2.9 97 15 18 16.1 100.34     LegendNANA
16:00 Legend Double Dagger 3.4 2.8 96 15 21 16.1 100.35     LegendNANA
17:00 Legend Double Dagger 3.1 2.7 97 15 18 16.1 100.35     LegendNANA
18:00 Legend Double Dagger 3.1 2.5 96 16 15 16.1 100.36     LegendNANA
19:00 Legend Double Dagger 3.0 2.6 97 14 13 16.1 100.39     LegendNANA
20:00 Legend Double Dagger 2.9 2.6 98 15 11 16.1 100.39     LegendNANA
21:00 Legend Double Dagger 3.0 2.9 99 14 15 16.1 100.37     LegendNANA
22:00 Legend Double Dagger 3.0 2.9 99 12 13 16.1 100.34     LegendNANA
23:00 Legend Double Dagger 3.1 3.1 100 13 26 4.0 100.33     LegendNANA

Notes on Data Quality.

Legend

  • E = Estimated
  • M = Missing
  • NA = Not Available
  • ‡ = Partner data that is not subject to review by the National Climate Archives
Date modified: